Location: Newark
(23.3970°S, 47.6010°W)
Time: 14:44:39
(UTC+00:00)

Tiros 1 despin weight - Pass Details

Date: 25 February 2020
Orbit: 593 x 642 km, 48.2° (Epoch: 31 March)

Event Time Altitude Azimuth Distance (km) Brightness Sun altitude
Rises 11:28:56 0° 354° (N) 2,845 ? 32.3°
Reaches altitude 10° 11:32:00 10° 16° (NNE) 1,960 ? 33.0°
Maximum altitude 11:34:43 16° 53° (NE) 1,628 ? 33.6°
Drops below altitude 10° 11:37:29 10° 91° (E) 1,993 ? 34.3°
Sets 11:40:37 0° 112° (ESE) 2,918 ? 35.0°
